Location: Oroua River
(40.4333°S, 175.4333°E)
Time: 11:43:23
(UTC+00:00)

IDEFIX/ARIANE 42P - Pass Details

Date: 03 February 2023
Orbit: 783 x 802 km, 98.5° (Epoch: 31 March)

Event Time Altitude Azimuth Distance (km) Brightness Sun altitude
Exits shadow 13:09:20 47° 150° (SSE) 1,047 3.4 -32.4°
Drops below altitude 10° 13:13:25 10° 184° (S) 2,378 5.8 -32.3°
Sets 13:15:47 0° 188° (S) 3,313 6.7 -32.2°
